STARLINK-2546 (48296 NORAD) Tracking and Keplerian Element Data

This shows tracking and keplerian element data for the satellite.

Feedback or suggestion? Click here.




ElementValue
Catalog48296
NameSTARLINK-2546
Epoch Orbit1576
Epoch Day215.25002315
Epoch Year2021
RAAN60.9066
Inclination53.0586
Eccentricity0.0001607
Argument of Perigee75.9913
Mean Anonmoly316.5941
Mean Motion15.06405465
Decay Rate-0.00034242
L11 48296U 21036W 21215.25002315 -.00034242 00000-0 -22906-2 0 9998
L22 48296 53.0586 60.9066 0001607 75.9913 316.5941 15.06405465 15767

Live tracking and technical data element details for STARLINK-2546 (NORAD 48296). STARLINK-2546 can be tracked NOW for your location showing map with azimuth and elevation plus other details from your city location.

Track the satellite on the map from your city or location and see movement details for azimuth, elevation, latitude, longitude, range, height, and movement on the map or in text.







IsCatalogInMostPopularTable: catalog: 48296, numindb: 35
Update: records affected: 1



GetName: 48296 STARLINK-2546

Hit Count: updated at: Tue, 03 Aug 2021 23:53:56 GMT